Time,TemperatureF,DewpointF,PressureIn,WindDirection,WindDirectionDegrees,WindSpeedMPH,WindSpeedGustMPH,Humidity,HourlyPrecipIn,Conditions,Clouds,dailyrainin,SoftwareType,DateUTC
2013-02-15 00:03:00,53.6,7.1,28.14,NE,56,3.6,4.0,15,0.00,,---,0.00,VWS V14.01,2013-02-15 08:03:00,
2013-02-15 00:08:00,53.6,7.1,28.20,NE,56,3.1,4.0,15,0.00,,---,0.00,VWS V14.01,2013-02-15 08:08:00,
2013-02-15 00:13:00,53.4,8.4,28.20,NE,56,4.9,4.9,16,0.00,,---,0.00,VWS V14.01,2013-02-15 08:13:00,
2013-02-15 00:18:00,53.4,8.4,28.20,NE,56,4.9,5.4,16,0.00,,---,0.00,VWS V14.01,2013-02-15 08:18:00,
2013-02-15 00:24:00,53.2,8.2,28.44,NE,56,4.0,4.5,16,0.00,,---,0.00,VWS V14.01,2013-02-15 08:24:00,
2013-02-15 00:29:00,53.4,8.4,28.44,NE,56,4.5,4.5,16,0.00,,---,0.00,VWS V14.01,2013-02-15 08:29:00,
2013-02-15 00:34:00,53.6,7.1,28.44,NE,56,4.0,4.9,15,0.00,,---,0.00,VWS V14.01,2013-02-15 08:34:00,
2013-02-15 00:39:00,53.8,7.2,28.76,NE,56,4.9,4.9,15,0.00,,---,0.00,VWS V14.01,2013-02-15 08:39:00,
2013-02-15 00:44:00,53.8,7.2,28.76,NE,56,2.7,4.0,15,0.00,,---,0.00,VWS V14.01,2013-02-15 08:44:00,
2013-02-15 00:49:00,54.1,7.5,28.76,NE,56,4.0,4.9,15,0.00,,---,0.00,VWS V14.01,2013-02-15 08:49:00,
2013-02-15 00:54:00,54.5,7.8,28.59,NE,56,3.1,4.9,15,0.00,,---,0.00,VWS V14.01,2013-02-15 08:54:00,
2013-02-15 00:59:00,54.5,7.8,28.59,NE,56,2.7,4.0,15,0.00,,---,0.00,VWS V14.01,2013-02-15 08:59:00,
2013-02-15 01:04:00,54.7,8.0,28.59,NE,56,4.0,4.0,15,0.00,,---,0.00,VWS V14.01,2013-02-15 09:04:00,
2013-02-15 01:09:00,55.0,8.2,28.82,NE,56,4.0,4.0,15,0.00,,---,0.00,VWS V14.01,2013-02-15 09:09:00,
2013-02-15 01:14:00,54.9,8.1,28.82,NE,56,3.1,3.6,15,0.00,,---,0.00,VWS V14.01,2013-02-15 09:14:00,
2013-02-15 01:19:00,54.5,7.8,28.82,NE,56,3.6,4.9,15,0.00,,---,0.00,VWS V14.01,2013-02-15 09:19:00,
2013-02-15 01:24:00,54.5,7.8,28.47,NE,56,3.1,3.1,15,0.00,,---,0.00,VWS V14.01,2013-02-15 09:24:00,
2013-02-15 01:29:00,54.9,8.1,28.47,NE,56,2.7,3.1,15,0.00,,---,0.00,VWS V14.01,2013-02-15 09:29:00,
2013-02-15 01:34:00,55.4,8.5,28.47,NE,56,4.0,4.0,15,0.00,,---,0.00,VWS V14.01,2013-02-15 09:34:00,
2013-02-15 01:39:00,55.4,8.5,28.76,NE,56,3.1,4.9,15,0.00,,---,0.00,VWS V14.01,2013-02-15 09:39:00,
2013-02-15 01:44:00,54.9,8.1,28.76,NE,56,3.6,3.6,15,0.00,,---,0.00,VWS V14.01,2013-02-15 09:44:00,
2013-02-15 01:49:00,54.3,7.7,28.76,NE,56,4.0,4.9,15,0.00,,---,0.00,VWS V14.01,2013-02-15 09:49:00,
2013-02-15 01:54:00,54.5,7.8,29.12,NE,56,3.6,3.6,15,0.00,,---,0.00,VWS V14.01,2013-02-15 09:54:00,
2013-02-15 01:59:00,54.9,8.1,29.12,NE,56,4.5,5.8,15,0.00,,---,0.00,VWS V14.01,2013-02-15 09:59:00,
2013-02-15 02:04:00,55.2,8.4,29.12,NE,56,3.6,3.6,15,0.00,,---,0.00,VWS V14.01,2013-02-15 10:04:00,
2013-02-15 02:09:00,55.6,8.7,29.83,NE,56,4.0,4.0,15,0.00,,---,0.00,VWS V14.01,2013-02-15 10:09:00,
2013-02-15 02:14:00,55.2,8.4,29.83,NE,56,4.0,4.9,15,0.00,,---,0.00,VWS V14.01,2013-02-15 10:14:00,
2013-02-15 02:19:00,54.7,8.0,29.83,NE,56,2.7,3.6,15,0.00,,---,0.00,VWS V14.01,2013-02-15 10:19:00,
2013-02-15 02:24:00,54.7,8.0,28.91,NE,56,3.1,3.1,15,0.00,,---,0.00,VWS V14.01,2013-02-15 10:24:00,
2013-02-15 02:29:00,54.9,8.1,28.91,NE,56,3.6,4.0,15,0.00,,---,0.00,VWS V14.01,2013-02-15 10:29:00,
2013-02-15 02:34:00,55.6,8.7,28.91,NE,56,0.0,0.0,15,0.00,,---,0.00,VWS V14.01,2013-02-15 10:34:00,
2013-02-15 02:39:00,55.8,8.8,28.79,NE,56,3.1,5.4,15,0.00,,---,0.00,VWS V14.01,2013-02-15 10:39:00,
2013-02-15 02:44:00,55.8,8.8,28.79,NE,56,3.1,3.6,15,0.00,,---,0.00,VWS V14.01,2013-02-15 10:44:00,
2013-02-15 02:49:00,55.8,8.8,28.79,NE,56,4.0,4.0,15,0.00,,---,0.00,VWS V14.01,2013-02-15 10:49:00,
2013-02-15 02:54:00,55.9,9.0,30.86,NE,56,3.1,5.4,15,0.00,,---,0.00,VWS V14.01,2013-02-15 10:54:00,
2013-02-15 02:59:00,55.9,9.0,30.86,NE,56,4.0,5.8,15,0.00,,---,0.00,VWS V14.01,2013-02-15 10:59:00,
2013-02-15 03:04:00,56.3,9.3,30.86,NE,56,3.6,5.4,15,0.00,,---,0.00,VWS V14.01,2013-02-15 11:04:00,
2013-02-15 03:09:00,56.3,9.3,30.80,NE,56,4.0,5.4,15,0.00,,---,0.00,VWS V14.01,2013-02-15 11:09:00,
2013-02-15 03:15:00,56.5,9.4,30.80,NE,56,4.0,4.0,15,0.00,,---,0.00,VWS V14.01,2013-02-15 11:15:00,
2013-02-15 03:20:00,56.8,9.7,30.80,NE,56,4.0,4.0,15,0.00,,---,0.00,VWS V14.01,2013-02-15 11:20:00,
2013-02-15 03:25:00,56.8,9.7,30.98,NE,56,4.9,4.9,15,0.00,,---,0.00,VWS V14.01,2013-02-15 11:25:00,
2013-02-15 03:30:00,56.7,9.6,30.98,NE,56,4.0,4.5,15,0.00,,---,0.00,VWS V14.01,2013-02-15 11:30:00,
2013-02-15 03:35:00,56.3,9.3,30.98,NE,56,3.1,4.9,15,0.00,,---,0.00,VWS V14.01,2013-02-15 11:35:00,
2013-02-15 03:40:00,55.9,9.0,31.01,NE,56,4.9,5.8,15,0.00,,---,0.00,VWS V14.01,2013-02-15 11:40:00,
2013-02-15 03:45:00,55.6,8.7,31.01,NE,56,4.0,4.9,15,0.00,,---,0.00,VWS V14.01,2013-02-15 11:45:00,
2013-02-15 03:50:00,55.4,8.5,31.01,NE,55,3.6,3.6,15,0.00,,---,0.00,VWS V14.01,2013-02-15 11:50:00,
2013-02-15 03:55:00,55.6,8.7,30.98,NE,56,3.6,5.8,15,0.00,,---,0.00,VWS V14.01,2013-02-15 11:55:00,
2013-02-15 04:00:00,55.4,8.5,30.98,NE,56,4.5,4.5,15,0.00,,---,0.00,VWS V14.01,2013-02-15 12:00:00,
2013-02-15 04:05:00,55.0,8.2,30.98,NE,56,3.6,5.4,15,0.00,,---,0.00,VWS V14.01,2013-02-15 12:05:00,
2013-02-15 04:10:00,54.9,8.1,30.92,NE,56,5.4,5.4,15,0.00,,---,0.00,VWS V14.01,2013-02-15 12:10:00,
2013-02-15 04:15:00,54.5,7.8,30.92,NE,56,3.1,4.9,15,0.00,,---,0.00,VWS V14.01,2013-02-15 12:15:00,
2013-02-15 04:20:00,54.3,7.7,30.92,NE,56,5.4,5.4,15,0.00,,---,0.00,VWS V14.01,2013-02-15 12:20:00,
2013-02-15 04:25:00,54.1,7.5,30.98,NE,56,4.9,5.8,15,0.00,,---,0.00,VWS V14.01,2013-02-15 12:25:00,
2013-02-15 04:30:00,54.1,7.5,30.98,NE,56,3.1,3.6,15,0.00,,---,0.00,VWS V14.01,2013-02-15 12:30:00,
2013-02-15 04:35:00,54.3,7.7,30.98,NE,56,4.5,4.9,15,0.00,,---,0.00,VWS V14.01,2013-02-15 12:35:00,
2013-02-15 04:40:00,54.5,7.8,31.01,NE,56,4.0,4.0,15,0.00,,---,0.00,VWS V14.01,2013-02-15 12:40:00,
2013-02-15 04:45:00,54.7,8.0,31.01,NE,56,3.6,4.9,15,0.00,,---,0.00,VWS V14.01,2013-02-15 12:45:00,
2013-02-15 04:50:00,54.7,8.0,31.01,NE,56,4.9,4.9,15,0.00,,---,0.00,VWS V14.01,2013-02-15 12:50:00,
2013-02-15 04:55:00,54.7,8.0,31.01,NE,56,3.6,4.9,15,0.00,,---,0.00,VWS V14.01,2013-02-15 12:55:00,
2013-02-15 05:00:00,54.9,8.1,31.01,NE,56,4.0,4.0,15,0.00,,---,0.00,VWS V14.01,2013-02-15 13:00:00,
2013-02-15 05:05:00,54.7,8.0,31.01,NE,56,2.7,4.0,15,0.00,,---,0.00,VWS V14.01,2013-02-15 13:05:00,
2013-02-15 05:10:00,55.6,8.7,31.01,NE,56,3.6,5.4,15,0.00,,---,0.00,VWS V14.01,2013-02-15 13:10:00,
2013-02-15 05:15:00,55.8,8.8,31.01,NE,56,4.9,5.4,15,0.00,,---,0.00,VWS V14.01,2013-02-15 13:15:00,
2013-02-15 05:20:00,55.4,8.5,31.01,NE,56,5.4,5.4,15,0.00,,---,0.00,VWS V14.01,2013-02-15 13:20:00,
2013-02-15 05:25:00,55.2,8.4,31.01,NE,56,5.4,5.4,15,0.00,,---,0.00,VWS V14.01,2013-02-15 13:25:00,
2013-02-15 05:30:00,54.9,8.1,31.01,NE,56,6.3,6.3,15,0.00,,---,0.00,VWS V14.01,2013-02-15 13:30:00,
2013-02-15 05:35:00,54.7,8.0,31.01,NE,56,4.0,4.9,15,0.00,,---,0.00,VWS V14.01,2013-02-15 13:35:00,
2013-02-15 05:40:00,54.7,8.0,30.98,NE,56,4.0,5.8,15,0.00,,---,0.00,VWS V14.01,2013-02-15 13:40:00,
2013-02-15 05:45:00,54.7,8.0,30.98,NE,56,6.7,6.7,15,0.00,,---,0.00,VWS V14.01,2013-02-15 13:45:00,
2013-02-15 05:50:00,54.9,8.1,30.98,NE,56,3.6,4.0,15,0.00,,---,0.00,VWS V14.01,2013-02-15 13:50:00,
2013-02-15 05:55:00,55.2,8.4,30.92,NE,56,4.5,4.9,15,0.00,,---,0.00,VWS V14.01,2013-02-15 13:55:00,
2013-02-15 06:00:00,55.8,8.8,30.92,NE,56,2.7,3.1,15,0.00,,---,0.00,VWS V14.01,2013-02-15 14:00:00,
2013-02-15 06:06:00,55.8,8.8,31.01,NE,56,4.0,6.3,15,0.00,,---,0.00,VWS V14.01,2013-02-15 14:06:00,
2013-02-15 06:11:00,55.2,8.4,31.01,NE,56,3.1,4.0,15,0.00,,---,0.00,VWS V14.01,2013-02-15 14:11:00,
2013-02-15 06:16:00,55.0,8.2,31.01,NE,56,4.9,5.4,15,0.00,,---,0.00,VWS V14.01,2013-02-15 14:16:00,
2013-02-15 06:21:00,54.9,8.1,31.01,NE,56,4.0,6.3,15,0.00,,---,0.00,VWS V14.01,2013-02-15 14:21:00,
2013-02-15 06:26:00,54.7,8.0,31.01,NE,56,3.1,4.9,15,0.00,,---,0.00,VWS V14.01,2013-02-15 14:26:00,
2013-02-15 06:31:00,55.2,8.4,31.01,NE,56,3.6,5.4,15,0.00,,---,0.00,VWS V14.01,2013-02-15 14:31:00,
2013-02-15 06:36:00,55.4,8.5,31.01,NE,56,3.1,4.9,15,0.00,,---,0.00,VWS V14.01,2013-02-15 14:36:00,
2013-02-15 06:41:00,55.2,8.4,31.01,NE,56,4.0,5.4,15,0.00,,---,0.00,VWS V14.01,2013-02-15 14:41:00,
2013-02-15 06:46:00,54.9,8.1,31.01,NE,56,4.9,6.3,15,0.00,,---,0.00,VWS V14.01,2013-02-15 14:46:00,
2013-02-15 06:51:00,54.5,7.8,31.01,NE,56,5.4,5.8,15,0.00,,---,0.00,VWS V14.01,2013-02-15 14:51:00,
2013-02-15 06:56:00,54.7,8.0,31.01,NE,56,3.6,3.6,15,0.00,,---,0.00,VWS V14.01,2013-02-15 14:56:00,
2013-02-15 07:01:00,55.0,8.2,31.01,NE,56,4.0,4.0,15,0.00,,---,0.00,VWS V14.01,2013-02-15 15:01:00,
2013-02-15 07:06:00,55.2,8.4,31.01,NE,56,3.6,4.0,15,0.00,,---,0.00,VWS V14.01,2013-02-15 15:06:00,
2013-02-15 07:11:00,55.8,8.8,31.01,NE,56,0.0,3.1,15,0.00,,---,0.00,VWS V14.01,2013-02-15 15:11:00,
2013-02-15 07:16:00,56.1,9.1,31.01,NE,56,4.9,4.9,15,0.00,,---,0.00,VWS V14.01,2013-02-15 15:16:00,
2013-02-15 07:21:00,56.3,9.3,31.01,NE,56,2.7,4.0,15,0.00,,---,0.00,VWS V14.01,2013-02-15 15:21:00,
2013-02-15 07:26:00,56.3,9.3,31.01,NE,56,2.7,3.6,15,0.00,,---,0.00,VWS V14.01,2013-02-15 15:26:00,
2013-02-15 07:31:00,56.5,9.4,31.01,NE,56,3.6,4.0,15,0.00,,---,0.00,VWS V14.01,2013-02-15 15:31:00,
2013-02-15 07:36:00,56.3,9.3,31.01,NE,56,3.1,3.1,15,0.00,,---,0.00,VWS V14.01,2013-02-15 15:36:00,
2013-02-15 07:41:00,56.3,9.3,31.01,NE,56,3.6,4.0,15,0.00,,---,0.00,VWS V14.01,2013-02-15 15:41:00,
2013-02-15 07:46:00,56.5,9.4,31.01,NE,56,3.1,3.6,15,0.00,,---,0.00,VWS V14.01,2013-02-15 15:46:00,
2013-02-15 07:51:00,56.8,9.7,31.01,NE,56,2.7,3.6,15,0.00,,---,0.00,VWS V14.01,2013-02-15 15:51:00,
2013-02-15 07:56:00,57.4,8.6,31.01,NE,56,3.1,3.1,14,0.00,,---,0.00,VWS V14.01,2013-02-15 15:56:00,
2013-02-15 08:01:00,58.1,9.2,31.01,NE,56,0.0,0.0,14,0.00,,---,0.00,VWS V14.01,2013-02-15 16:01:00,
2013-02-15 08:06:00,58.6,9.6,31.01,NE,56,0.0,0.0,14,0.00,,---,0.00,VWS V14.01,2013-02-15 16:06:00,
2013-02-15 08:11:00,59.4,10.2,31.01,NE,56,0.0,0.0,14,0.00,,---,0.00,VWS V14.01,2013-02-15 16:11:00,
2013-02-15 08:16:00,60.1,10.8,31.01,NE,56,2.7,3.6,14,0.00,,---,0.00,VWS V14.01,2013-02-15 16:16:00,
2013-02-15 08:21:00,61.0,11.5,31.01,NE,56,3.1,3.1,14,0.00,,---,0.00,VWS V14.01,2013-02-15 16:21:00,
2013-02-15 08:26:00,61.7,12.1,31.01,NE,56,0.0,0.0,14,0.00,,---,0.00,VWS V14.01,2013-02-15 16:26:00,
2013-02-15 08:31:00,62.2,12.5,31.01,NE,56,0.0,0.0,14,0.00,,---,0.00,VWS V14.01,2013-02-15 16:31:00,
2013-02-15 08:36:00,62.8,11.2,31.01,NE,56,3.1,3.6,13,0.00,,---,0.00,VWS V14.01,2013-02-15 16:36:00,
2013-02-15 08:41:00,63.1,11.5,31.01,NE,56,0.0,2.7,13,0.00,,---,0.00,VWS V14.01,2013-02-15 16:41:00,
2013-02-15 08:47:00,63.5,11.8,31.01,NE,56,0.0,0.0,13,0.00,,---,0.00,VWS V14.01,2013-02-15 16:47:00,
2013-02-15 08:52:00,63.5,11.8,31.01,NE,56,3.6,5.8,13,0.00,,---,0.00,VWS V14.01,2013-02-15 16:52:00,
2013-02-15 08:57:00,63.7,11.9,31.01,NE,56,0.0,0.0,13,0.00,,---,0.00,VWS V14.01,2013-02-15 16:57:00,
2013-02-15 09:02:00,63.9,12.1,31.01,NE,56,0.0,4.0,13,0.00,,---,0.00,VWS V14.01,2013-02-15 17:02:00,
2013-02-15 09:07:00,64.0,12.2,31.01,NE,56,3.1,3.1,13,0.00,,---,0.00,VWS V14.01,2013-02-15 17:07:00,
2013-02-15 09:12:00,64.2,12.4,31.01,NE,56,4.0,4.0,13,0.00,,---,0.00,VWS V14.01,2013-02-15 17:12:00,
2013-02-15 09:17:00,64.8,12.8,31.01,NE,56,0.0,0.0,13,0.00,,---,0.00,VWS V14.01,2013-02-15 17:17:00,
2013-02-15 09:22:00,64.8,12.8,31.01,NE,56,3.1,3.1,13,0.00,,---,0.00,VWS V14.01,2013-02-15 17:22:00,
2013-02-15 09:27:00,64.6,12.7,31.01,NE,56,5.4,5.8,13,0.00,,---,0.00,VWS V14.01,2013-02-15 17:27:00,
2013-02-15 09:32:00,64.6,12.7,31.01,NE,56,0.0,0.0,13,0.00,,---,0.00,VWS V14.01,2013-02-15 17:32:00,
2013-02-15 09:37:00,65.1,13.1,31.01,NE,56,2.7,3.1,13,0.00,,---,0.00,VWS V14.01,2013-02-15 17:37:00,
2013-02-15 09:42:00,65.1,13.1,31.01,NE,56,0.0,0.0,13,0.00,,---,0.00,VWS V14.01,2013-02-15 17:42:00,
2013-02-15 09:47:00,65.1,13.1,31.01,NE,56,2.7,5.4,13,0.00,,---,0.00,VWS V14.01,2013-02-15 17:47:00,
2013-02-15 09:52:00,64.9,12.9,31.01,NE,56,3.6,3.6,13,0.00,,---,0.00,VWS V14.01,2013-02-15 17:52:00,
2013-02-15 09:57:00,65.1,13.1,31.01,SW,229,2.2,4.0,13,0.00,,---,0.00,VWS V14.01,2013-02-15 17:57:00,
2013-02-15 10:02:00,65.3,13.2,31.01,SW,235,3.6,3.6,13,0.00,,---,0.00,VWS V14.01,2013-02-15 18:02:00,
2013-02-15 10:07:00,65.5,13.4,31.01,SW,229,4.0,4.0,13,0.00,,---,0.00,VWS V14.01,2013-02-15 18:07:00,
2013-02-15 10:12:00,65.5,13.4,31.01,SSW,203,5.4,5.4,13,0.00,,---,0.00,VWS V14.01,2013-02-15 18:12:00,
2013-02-15 10:17:00,65.5,13.4,31.01,SSW,205,3.1,5.4,13,0.00,,---,0.00,VWS V14.01,2013-02-15 18:17:00,
2013-02-15 10:22:00,65.5,13.4,31.01,SSW,213,0.0,3.1,13,0.00,,---,0.00,VWS V14.01,2013-02-15 18:22:00,
2013-02-15 10:27:00,65.5,13.4,31.01,SSW,213,4.0,5.8,13,0.00,,---,0.00,VWS V14.01,2013-02-15 18:27:00,
2013-02-15 10:32:00,65.7,13.5,31.01,SSW,213,3.6,3.6,13,0.00,,---,0.00,VWS V14.01,2013-02-15 18:32:00,
2013-02-15 10:37:00,65.7,13.5,31.01,West,271,5.4,6.3,13,0.00,,---,0.00,VWS V14.01,2013-02-15 18:37:00,
2013-02-15 10:42:00,65.7,13.5,31.01,West,268,4.0,5.4,13,0.00,,---,0.00,VWS V14.01,2013-02-15 18:42:00,
2013-02-15 10:47:00,65.5,13.4,31.01,West,260,7.6,7.6,13,0.00,,---,0.00,VWS V14.01,2013-02-15 18:47:00,
2013-02-15 10:54:00,65.8,13.6,31.01,West,267,3.1,5.4,13,0.00,,---,0.00,VWS V14.01,2013-02-15 18:54:00,
2013-02-15 10:59:00,65.8,13.6,31.01,West,278,3.6,5.4,13,0.00,,---,0.00,VWS V14.01,2013-02-15 18:59:00,
2013-02-15 11:04:00,65.8,13.6,31.01,West,268,5.8,6.3,13,0.00,,---,0.00,VWS V14.01,2013-02-15 19:04:00,
2013-02-15 11:09:00,66.0,13.8,31.01,West,266,4.9,5.8,13,0.00,,---,0.00,VWS V14.01,2013-02-15 19:09:00,
2013-02-15 11:14:00,66.0,13.8,31.01,West,268,4.9,6.3,13,0.00,,---,0.00,VWS V14.01,2013-02-15 19:14:00,
2013-02-15 11:19:00,65.8,13.6,31.01,WNW,291,4.0,5.4,13,0.00,,---,0.00,VWS V14.01,2013-02-15 19:19:00,
2013-02-15 11:24:00,66.0,13.8,31.01,West,267,5.8,5.8,13,0.00,,---,0.00,VWS V14.01,2013-02-15 19:24:00,
2013-02-15 11:29:00,66.2,12.1,31.01,West,267,0.0,5.4,12,0.00,,---,0.00,VWS V14.01,2013-02-15 19:29:00,
2013-02-15 11:34:00,66.4,12.3,31.01,West,261,3.1,3.1,12,0.00,,---,0.00,VWS V14.01,2013-02-15 19:34:00,
2013-02-15 11:39:00,66.4,12.3,31.01,West,264,5.8,6.3,12,0.00,,---,0.00,VWS V14.01,2013-02-15 19:39:00,
2013-02-15 11:44:00,66.4,12.3,31.01,West,261,2.7,4.0,12,0.00,,---,0.00,VWS V14.01,2013-02-15 19:44:00,
2013-02-15 11:49:00,66.2,12.1,31.01,West,268,2.7,7.6,12,0.00,,---,0.00,VWS V14.01,2013-02-15 19:49:00,
2013-02-15 11:54:00,66.4,12.3,31.01,West,265,3.6,3.6,12,0.00,,---,0.00,VWS V14.01,2013-02-15 19:54:00,
2013-02-15 11:59:00,66.6,12.4,31.01,NW,304,2.2,4.0,12,0.00,,---,0.00,VWS V14.01,2013-02-15 19:59:00,
2013-02-15 12:04:00,66.9,12.7,31.01,WSW,238,0.0,0.0,12,0.00,,---,0.00,VWS V14.01,2013-02-15 20:04:00,
2013-02-15 12:09:00,67.6,13.2,31.01,WSW,245,5.4,5.8,12,0.00,,---,0.00,VWS V14.01,2013-02-15 20:09:00,
2013-02-15 12:14:00,67.8,13.4,31.01,SSW,193,0.0,0.0,12,0.00,,---,0.00,VWS V14.01,2013-02-15 20:14:00,
2013-02-15 12:19:00,68.0,13.5,31.01,West,275,6.3,6.3,12,0.00,,---,0.00,VWS V14.01,2013-02-15 20:19:00,
2013-02-15 12:24:00,67.8,13.4,31.01,West,267,8.7,8.7,12,0.00,,---,0.00,VWS V14.01,2013-02-15 20:24:00,
2013-02-15 12:29:00,68.2,13.7,31.01,WNW,292,2.7,6.3,12,0.00,,---,0.00,VWS V14.01,2013-02-15 20:29:00,
2013-02-15 12:34:00,68.4,13.8,31.01,SSW,204,3.1,8.1,12,0.00,,---,0.00,VWS V14.01,2013-02-15 20:34:00,
2013-02-15 12:39:00,68.5,13.9,29.88,WNW,285,5.4,6.3,12,0.00,,---,0.00,VWS V14.01,2013-02-15 20:39:00,
2013-02-15 12:44:00,68.4,13.8,29.88,SW,223,6.3,6.3,12,0.00,,---,0.00,VWS V14.01,2013-02-15 20:44:00,
2013-02-15 12:49:00,68.4,13.8,29.88,West,272,5.8,10.5,12,0.00,,---,0.00,VWS V14.01,2013-02-15 20:49:00,
2013-02-15 12:54:00,68.0,13.5,28.91,South,190,7.6,7.6,12,0.00,,---,0.00,VWS V14.01,2013-02-15 20:54:00,
2013-02-15 12:59:00,68.0,13.5,28.91,West,266,5.8,8.1,12,0.00,,---,0.00,VWS V14.01,2013-02-15 20:59:00,
2013-02-15 13:04:00,68.0,13.5,28.91,West,264,10.1,10.5,12,0.00,,---,0.00,VWS V14.01,2013-02-15 21:04:00,
2013-02-15 13:09:00,68.4,13.8,29.06,SW,234,3.1,5.4,12,0.00,,---,0.00,VWS V14.01,2013-02-15 21:09:00,
2013-02-15 13:14:00,68.5,13.9,29.06,West,267,4.9,4.9,12,0.00,,---,0.00,VWS V14.01,2013-02-15 21:14:00,
2013-02-15 13:19:00,68.5,13.9,29.06,WNW,287,8.3,8.3,12,0.00,,---,0.00,VWS V14.01,2013-02-15 21:19:00,
2013-02-15 13:25:00,68.4,13.8,30.77,WNW,294,5.8,5.8,12,0.00,,---,0.00,VWS V14.01,2013-02-15 21:25:00,
2013-02-15 13:30:00,68.4,13.8,30.77,SW,219,4.0,8.1,12,0.00,,---,0.00,VWS V14.01,2013-02-15 21:30:00,
2013-02-15 13:35:00,68.5,13.9,30.77,West,272,7.6,8.3,12,0.00,,---,0.00,VWS V14.01,2013-02-15 21:35:00,
2013-02-15 13:40:00,68.7,14.1,28.85,SW,225,8.1,8.7,12,0.00,,---,0.00,VWS V14.01,2013-02-15 21:40:00,
2013-02-15 13:45:00,68.9,14.2,28.85,West,265,3.6,4.0,12,0.00,,---,0.00,VWS V14.01,2013-02-15 21:45:00,
2013-02-15 13:50:00,68.9,14.2,28.85,West,265,0.0,3.1,12,0.00,,---,0.00,VWS V14.01,2013-02-15 21:50:00,
2013-02-15 13:55:00,69.1,14.4,28.76,WNW,284,2.7,6.3,12,0.00,,---,0.00,VWS V14.01,2013-02-15 21:55:00,
2013-02-15 14:00:00,69.3,19.7,28.76,WSW,253,8.1,8.1,15,0.00,,---,0.00,VWS V14.01,2013-02-15 22:00:00,
2013-02-15 14:05:00,69.3,19.7,28.76,WSW,247,4.0,4.0,15,0.00,,---,0.00,VWS V14.01,2013-02-15 22:05:00,
2013-02-15 14:10:00,69.3,19.7,28.82,West,265,2.7,3.1,15,0.00,,---,0.00,VWS V14.01,2013-02-15 22:10:00,
2013-02-15 14:15:00,69.3,19.7,28.82,SW,234,3.6,5.4,15,0.00,,---,0.00,VWS V14.01,2013-02-15 22:15:00,
2013-02-15 14:20:00,69.3,19.7,28.82,WSW,249,4.0,4.0,15,0.00,,---,0.00,VWS V14.01,2013-02-15 22:20:00,
2013-02-15 14:25:00,69.4,19.8,28.44,West,266,5.4,8.3,15,0.00,,---,0.00,VWS V14.01,2013-02-15 22:25:00,
2013-02-15 14:30:00,69.8,18.5,28.44,SSW,198,5.8,8.3,14,0.00,,---,0.00,VWS V14.01,2013-02-15 22:30:00,
2013-02-15 14:35:00,69.6,20.0,28.44,West,281,6.3,8.1,15,0.00,,---,0.00,VWS V14.01,2013-02-15 22:35:00,
2013-02-15 14:40:00,69.4,19.8,28.47,West,274,5.4,5.4,15,0.00,,---,0.00,VWS V14.01,2013-02-15 22:40:00,
2013-02-15 14:45:00,69.3,19.7,28.47,West,272,8.1,8.1,15,0.00,,---,0.00,VWS V14.01,2013-02-15 22:45:00,
2013-02-15 14:50:00,69.3,19.7,28.47,West,263,4.0,8.7,15,0.00,,---,0.00,VWS V14.01,2013-02-15 22:50:00,
2013-02-15 14:55:00,69.1,14.4,28.17,West,262,6.3,7.6,12,0.00,,---,0.00,VWS V14.01,2013-02-15 22:55:00,
2013-02-15 15:00:00,68.7,14.1,28.17,SW,231,3.6,5.8,12,0.00,,---,0.00,VWS V14.01,2013-02-15 23:00:00,
2013-02-15 15:05:00,68.7,14.1,28.17,WNW,290,5.8,5.8,12,0.00,,---,0.00,VWS V14.01,2013-02-15 23:05:00,
2013-02-15 15:10:00,68.7,14.1,28.50,WSW,258,6.7,7.6,12,0.00,,---,0.00,VWS V14.01,2013-02-15 23:10:00,
2013-02-15 15:16:00,68.7,14.1,28.50,WSW,248,4.9,8.3,12,0.00,,---,0.00,VWS V14.01,2013-02-15 23:16:00,
2013-02-15 15:21:00,68.9,19.4,28.50,West,266,5.8,8.1,15,0.00,,---,0.00,VWS V14.01,2013-02-15 23:21:00,
2013-02-15 15:26:00,68.7,14.1,28.41,WSW,250,3.6,7.6,12,0.00,,---,0.00,VWS V14.01,2013-02-15 23:26:00,
2013-02-15 15:31:00,68.5,19.1,28.41,WSW,248,3.6,3.6,15,0.00,,---,0.00,VWS V14.01,2013-02-15 23:31:00,
2013-02-15 15:36:00,68.5,19.1,28.02,WSW,249,0.0,5.8,15,0.00,,---,0.00,VWS V14.01,2013-02-15 23:36:00,
2013-02-15 15:41:00,68.9,19.4,28.02,West,270,7.6,7.6,15,0.00,,---,0.00,VWS V14.01,2013-02-15 23:41:00,
2013-02-15 15:46:00,68.5,13.9,28.02,SSW,209,8.1,8.1,12,0.00,,---,0.00,VWS V14.01,2013-02-15 23:46:00,
2013-02-15 15:51:00,68.0,13.5,27.96,SW,219,3.6,4.9,12,0.00,,---,0.00,VWS V14.01,2013-02-15 23:51:00,
2013-02-15 15:56:00,68.4,13.8,27.96,West,268,7.6,7.6,12,0.00,,---,0.00,VWS V14.01,2013-02-15 23:56:00,
2013-02-15 16:01:00,68.2,13.7,27.96,SSW,201,4.9,4.9,12,0.00,,---,0.00,VWS V14.01,2013-02-16 00:01:00,
2013-02-15 16:06:00,67.6,13.2,28.02,SW,230,0.0,0.0,12,0.00,,---,0.00,VWS V14.01,2013-02-16 00:06:00,
2013-02-15 16:11:00,68.0,13.5,28.02,SW,229,2.7,5.4,12,0.00,,---,0.00,VWS V14.01,2013-02-16 00:11:00,
2013-02-15 16:16:00,67.8,13.4,28.02,West,271,3.6,6.3,12,0.00,,---,0.00,VWS V14.01,2013-02-16 00:16:00,
2013-02-15 16:21:00,67.6,13.2,27.91,WNW,301,5.8,5.8,12,0.00,,---,0.00,VWS V14.01,2013-02-16 00:21:00,
2013-02-15 16:26:00,67.6,13.2,27.91,WSW,256,4.9,4.9,12,0.00,,---,0.00,VWS V14.01,2013-02-16 00:26:00,
2013-02-15 16:31:00,67.6,13.2,27.91,WSW,256,0.0,0.0,12,0.00,,---,0.00,VWS V14.01,2013-02-16 00:31:00,
2013-02-15 16:36:00,67.6,13.2,27.94,WSW,256,0.0,0.0,12,0.00,,---,0.00,VWS V14.01,2013-02-16 00:36:00,
2013-02-15 16:41:00,67.8,13.4,27.94,WSW,256,0.0,0.0,12,0.00,,---,0.00,VWS V14.01,2013-02-16 00:41:00,
2013-02-15 16:46:00,67.6,13.2,27.94,WSW,256,0.0,0.0,12,0.00,,---,0.00,VWS V14.01,2013-02-16 00:46:00,
2013-02-15 16:51:00,67.6,13.2,27.88,WSW,256,0.0,0.0,12,0.00,,---,0.00,VWS V14.01,2013-02-16 00:51:00,
2013-02-15 16:56:00,67.3,13.0,27.88,WSW,256,4.9,4.9,12,0.00,,---,0.00,VWS V14.01,2013-02-16 00:56:00,
2013-02-15 17:01:00,67.1,12.8,27.88,WSW,256,0.0,5.8,12,0.00,,---,0.00,VWS V14.01,2013-02-16 01:01:00,
2013-02-15 17:07:00,66.7,12.5,27.88,WSW,257,3.1,3.6,12,0.00,,---,0.00,VWS V14.01,2013-02-16 01:07:00,
2013-02-15 17:12:00,66.6,12.4,27.88,WSW,257,4.0,4.0,12,0.00,,---,0.00,VWS V14.01,2013-02-16 01:12:00,
2013-02-15 17:17:00,66.0,13.8,27.88,WSW,257,0.0,0.0,13,0.00,,---,0.00,VWS V14.01,2013-02-16 01:17:00,
2013-02-15 17:22:00,65.7,13.5,27.96,ENE,73,2.7,2.7,13,0.00,,---,0.00,VWS V14.01,2013-02-16 01:22:00,
2013-02-15 17:27:00,65.1,13.1,27.96,East,88,5.8,5.8,13,0.00,,---,0.00,VWS V14.01,2013-02-16 01:27:00,
2013-02-15 17:32:00,64.6,12.7,27.96,North,11,0.0,0.0,13,0.00,,---,0.00,VWS V14.01,2013-02-16 01:32:00,
2013-02-15 17:37:00,64.0,12.2,27.94,ENE,69,3.1,3.6,13,0.00,,---,0.00,VWS V14.01,2013-02-16 01:37:00,
2013-02-15 17:42:00,63.5,11.8,27.94,ENE,59,0.0,4.0,13,0.00,,---,0.00,VWS V14.01,2013-02-16 01:42:00,
2013-02-15 17:47:00,62.8,11.2,27.94,ENE,58,3.1,4.9,13,0.00,,---,0.00,VWS V14.01,2013-02-16 01:47:00,
2013-02-15 17:52:00,61.9,12.2,27.82,ENE,58,3.6,3.6,14,0.00,,---,0.00,VWS V14.01,2013-02-16 01:52:00,
2013-02-15 17:57:00,61.0,11.5,27.82,ENE,59,3.1,3.6,14,0.00,,---,0.00,VWS V14.01,2013-02-16 01:57:00,
2013-02-15 18:02:00,60.3,10.9,27.82,NE,55,3.6,4.0,14,0.00,,---,0.00,VWS V14.01,2013-02-16 02:02:00,
2013-02-15 18:07:00,59.5,10.3,27.85,NE,34,3.6,5.8,14,0.00,,---,0.00,VWS V14.01,2013-02-16 02:07:00,
2013-02-15 18:12:00,59.0,9.9,27.85,ESE,112,3.6,3.6,14,0.00,,---,0.00,VWS V14.01,2013-02-16 02:12:00,
2013-02-15 18:17:00,59.0,9.9,27.85,NE,47,3.6,4.9,14,0.00,,---,0.00,VWS V14.01,2013-02-16 02:17:00,
2013-02-15 18:22:00,59.2,10.0,27.88,SE,131,5.8,8.7,14,0.00,,---,0.00,VWS V14.01,2013-02-16 02:22:00,
2013-02-15 18:27:00,59.9,10.6,27.88,ESE,120,5.8,8.1,14,0.00,,---,0.00,VWS V14.01,2013-02-16 02:27:00,
2013-02-15 18:33:00,60.6,11.2,27.88,ESE,104,4.9,5.8,14,0.00,,---,0.00,VWS V14.01,2013-02-16 02:33:00,
2013-02-15 18:38:00,60.6,11.2,27.94,ESE,115,5.4,5.4,14,0.00,,---,0.00,VWS V14.01,2013-02-16 02:38:00,
2013-02-15 18:43:00,60.6,11.2,27.94,East,92,6.3,6.3,14,0.00,,---,0.00,VWS V14.01,2013-02-16 02:43:00,
2013-02-15 18:48:00,60.8,11.3,27.94,ESE,116,3.6,4.9,14,0.00,,---,0.00,VWS V14.01,2013-02-16 02:48:00,
2013-02-15 18:53:00,60.6,11.2,28.05,SE,132,3.6,5.4,14,0.00,,---,0.00,VWS V14.01,2013-02-16 02:53:00,
2013-02-15 18:58:00,60.8,11.3,28.05,East,93,3.1,5.4,14,0.00,,---,0.00,VWS V14.01,2013-02-16 02:58:00,
2013-02-15 19:03:00,60.8,11.3,28.05,SE,124,3.1,5.4,14,0.00,,---,0.00,VWS V14.01,2013-02-16 03:03:00,
2013-02-15 19:08:00,60.8,11.3,28.02,East,79,3.1,3.1,14,0.00,,---,0.00,VWS V14.01,2013-02-16 03:08:00,
2013-02-15 19:13:00,61.2,11.6,28.02,ESE,105,5.8,7.2,14,0.00,,---,0.00,VWS V14.01,2013-02-16 03:13:00,
2013-02-15 19:18:00,61.5,11.9,28.02,SE,140,3.6,3.6,14,0.00,,---,0.00,VWS V14.01,2013-02-16 03:18:00,
2013-02-15 19:23:00,61.7,12.1,28.02,ENE,65,5.4,7.6,14,0.00,,---,0.00,VWS V14.01,2013-02-16 03:23:00,
2013-02-15 19:28:00,61.7,12.1,28.02,ENE,74,4.0,4.0,14,0.00,,---,0.00,VWS V14.01,2013-02-16 03:28:00,
2013-02-15 19:33:00,61.5,11.9,28.02,ESE,115,5.8,6.3,14,0.00,,---,0.00,VWS V14.01,2013-02-16 03:33:00,
2013-02-15 19:38:00,61.7,12.1,28.14,ESE,110,5.4,5.4,14,0.00,,---,0.00,VWS V14.01,2013-02-16 03:38:00,
2013-02-15 19:43:00,61.7,12.1,28.14,SE,126,4.0,8.1,14,0.00,,---,0.00,VWS V14.01,2013-02-16 03:43:00,
2013-02-15 19:48:00,61.7,12.1,28.14,ESE,104,4.5,7.6,14,0.00,,---,0.00,VWS V14.01,2013-02-16 03:48:00,
2013-02-15 19:53:00,61.5,11.9,28.14,ESE,121,4.9,6.3,14,0.00,,---,0.00,VWS V14.01,2013-02-16 03:53:00,
2013-02-15 19:58:00,61.5,11.9,28.14,East,86,5.8,6.3,14,0.00,,---,0.00,VWS V14.01,2013-02-16 03:58:00,
2013-02-15 20:03:00,61.2,11.6,28.14,ENE,71,8.1,9.2,14,0.00,,---,0.00,VWS V14.01,2013-02-16 04:03:00,
2013-02-15 20:08:00,61.2,11.6,28.05,East,79,5.4,10.1,14,0.00,,---,0.00,VWS V14.01,2013-02-16 04:08:00,
2013-02-15 20:13:00,61.0,11.5,28.05,East,84,5.4,8.3,14,0.00,,---,0.00,VWS V14.01,2013-02-16 04:13:00,
2013-02-15 20:18:00,61.0,11.5,28.05,ESE,110,6.3,6.3,14,0.00,,---,0.00,VWS V14.01,2013-02-16 04:18:00,
2013-02-15 20:23:00,60.8,11.3,27.99,East,82,8.3,8.7,14,0.00,,---,0.00,VWS V14.01,2013-02-16 04:23:00,
2013-02-15 20:28:00,60.6,11.2,27.99,East,86,8.1,8.1,14,0.00,,---,0.00,VWS V14.01,2013-02-16 04:28:00,
2013-02-15 20:33:00,60.4,11.0,27.99,ENE,77,7.6,7.6,14,0.00,,---,0.00,VWS V14.01,2013-02-16 04:33:00,
2013-02-15 20:38:00,60.4,11.0,28.05,East,91,4.0,6.3,14,0.00,,---,0.00,VWS V14.01,2013-02-16 04:38:00,
2013-02-15 20:43:00,60.3,10.9,28.05,NE,52,5.8,7.6,14,0.00,,---,0.00,VWS V14.01,2013-02-16 04:43:00,
2013-02-15 20:49:00,60.1,10.8,28.05,ENE,77,3.6,5.8,14,0.00,,---,0.00,VWS V14.01,2013-02-16 04:49:00,
2013-02-15 20:54:00,59.9,10.6,28.23,ENE,77,2.2,3.6,14,0.00,,---,0.00,VWS V14.01,2013-02-16 04:54:00,
2013-02-15 20:59:00,59.2,10.0,28.23,ENE,77,4.0,4.9,14,0.00,,---,0.00,VWS V14.01,2013-02-16 04:59:00,
2013-02-15 21:00:00,59.2,10.0,28.23,ENE,77,2.7,4.9,14,0.00,,---,0.00,VWS V14.01,2013-02-16 05:00:00,
2013-02-15 21:02:00,58.8,9.8,28.23,ENE,77,4.0,4.0,14,0.00,,---,0.00,VWS V14.01,2013-02-16 05:02:00,
2013-02-15 21:07:00,58.8,9.8,28.41,ENE,73,5.8,5.8,14,0.00,,---,0.00,VWS V14.01,2013-02-16 05:07:00,
2013-02-15 21:12:00,58.8,9.8,28.41,ENE,64,5.4,6.3,14,0.00,,---,0.00,VWS V14.01,2013-02-16 05:12:00,
2013-02-15 21:17:00,59.0,9.9,28.41,ENE,69,3.1,4.9,14,0.00,,---,0.00,VWS V14.01,2013-02-16 05:17:00,
2013-02-15 21:22:00,59.2,10.0,28.29,East,82,10.5,10.5,14,0.00,,---,0.00,VWS V14.01,2013-02-16 05:22:00,
2013-02-15 21:24:00,59.4,10.2,28.29,ENE,71,5.8,5.8,14,0.00,,---,0.00,VWS V14.01,2013-02-16 05:24:00,
2013-02-15 21:29:00,59.7,10.5,28.29,NNE,29,3.6,10.5,14,0.00,,---,0.00,VWS V14.01,2013-02-16 05:29:00,
2013-02-15 21:34:00,60.1,10.8,28.29,ENE,75,8.1,8.1,14,0.00,,---,0.00,VWS V14.01,2013-02-16 05:34:00,
2013-02-15 21:39:00,60.3,10.9,28.50,East,87,8.3,11.4,14,0.00,,---,0.00,VWS V14.01,2013-02-16 05:39:00,
2013-02-15 21:44:00,60.6,11.2,28.50,ENE,69,13.2,13.2,14,0.00,,---,0.00,VWS V14.01,2013-02-16 05:44:00,
2013-02-15 21:49:00,60.8,11.3,28.50,East,93,11.0,11.0,14,0.00,,---,0.00,VWS V14.01,2013-02-16 05:49:00,
2013-02-15 21:54:00,61.0,11.5,28.38,ENE,63,10.1,11.0,14,0.00,,---,0.00,VWS V14.01,2013-02-16 05:54:00,
2013-02-15 21:59:00,61.3,11.8,28.38,ENE,72,12.8,12.8,14,0.00,,---,0.00,VWS V14.01,2013-02-16 05:59:00,
2013-02-15 22:04:00,61.5,11.9,28.38,ENE,71,12.8,13.2,14,0.00,,---,0.00,VWS V14.01,2013-02-16 06:04:00,
2013-02-15 22:09:00,61.7,12.1,28.17,ENE,70,11.4,11.4,14,0.00,,---,0.00,VWS V14.01,2013-02-16 06:09:00,
2013-02-15 22:14:00,61.9,12.2,28.17,ENE,57,7.2,10.5,14,0.00,,---,0.00,VWS V14.01,2013-02-16 06:14:00,
2013-02-15 22:19:00,61.9,12.2,28.17,NE,56,8.1,12.8,14,0.00,,---,0.00,VWS V14.01,2013-02-16 06:19:00,
2013-02-15 22:24:00,61.9,12.2,28.20,ENE,65,11.0,13.6,14,0.00,,---,0.00,VWS V14.01,2013-02-16 06:24:00,
2013-02-15 22:29:00,62.1,12.3,28.20,ENE,77,12.3,13.6,14,0.00,,---,0.00,VWS V14.01,2013-02-16 06:29:00,
2013-02-15 22:34:00,62.1,12.3,28.20,East,82,8.7,10.5,14,0.00,,---,0.00,VWS V14.01,2013-02-16 06:34:00,
2013-02-15 22:39:00,61.9,12.2,28.38,ENE,60,10.5,12.8,14,0.00,,---,0.00,VWS V14.01,2013-02-16 06:39:00,
2013-02-15 22:44:00,61.9,12.2,28.38,ENE,73,11.0,11.0,14,0.00,,---,0.00,VWS V14.01,2013-02-16 06:44:00,
2013-02-15 22:50:00,61.9,12.2,28.38,ENE,73,8.7,12.8,14,0.00,,---,0.00,VWS V14.01,2013-02-16 06:50:00,
2013-02-15 22:55:00,61.9,12.2,28.41,ENE,62,7.6,7.6,14,0.00,,---,0.00,VWS V14.01,2013-02-16 06:55:00,
2013-02-15 23:00:00,61.9,12.2,28.41,East,83,10.1,11.0,14,0.00,,---,0.00,VWS V14.01,2013-02-16 07:00:00,
2013-02-15 23:05:00,61.7,12.1,28.41,ENE,71,8.1,13.2,14,0.00,,---,0.00,VWS V14.01,2013-02-16 07:05:00,
2013-02-15 23:10:00,61.9,12.2,28.26,NE,56,13.2,13.2,14,0.00,,---,0.00,VWS V14.01,2013-02-16 07:10:00,
2013-02-15 23:15:00,61.9,12.2,28.26,ENE,63,9.2,11.4,14,0.00,,---,0.00,VWS V14.01,2013-02-16 07:15:00,
2013-02-15 23:20:00,61.9,12.2,28.26,ENE,70,10.1,11.0,14,0.00,,---,0.00,VWS V14.01,2013-02-16 07:20:00,
2013-02-15 23:25:00,62.1,12.3,28.38,ENE,59,8.7,12.3,14,0.00,,---,0.00,VWS V14.01,2013-02-16 07:25:00,
2013-02-15 23:30:00,62.2,12.5,28.38,ENE,64,8.1,8.1,14,0.00,,---,0.00,VWS V14.01,2013-02-16 07:30:00,
2013-02-15 23:35:00,62.2,12.5,28.38,NE,53,8.3,10.5,14,0.00,,---,0.00,VWS V14.01,2013-02-16 07:35:00,
2013-02-15 23:40:00,62.1,12.3,28.44,East,79,11.0,11.0,14,0.00,,---,0.00,VWS V14.01,2013-02-16 07:40:00,
2013-02-15 23:45:00,62.2,12.5,28.44,East,93,8.3,11.4,14,0.00,,---,0.00,VWS V14.01,2013-02-16 07:45:00,
2013-02-15 23:50:00,62.2,12.5,28.44,ENE,76,11.0,11.9,14,0.00,,---,0.00,VWS V14.01,2013-02-16 07:50:00,
2013-02-15 23:55:00,62.2,12.5,28.59,ENE,67,13.2,13.2,14,0.00,,---,0.00,VWS V14.01,2013-02-16 07:55:00,